Regional Weather Roundup
Issued by NWS

Home | Current Version | Previous Version | Text Only | Print | Product List | Glossary On
Versions: 1 2 3 4 5 6 7 8 9 10 11 12 13 14 15 16 17 18 19 20 21 22 23 24 25 26 27 28 29 30 31 32 33 34 35 36 37 38 39 40 41 42 43 44 45 46 47 48 49 50
000
ASUS44 KMEG 261110
RWRTN
TENNESSEE HOURLY STATE WEATHER ROUNDUP
NATIONAL WEATHER SERVICE MEMPHIS TN
600 AM CDT WED JUL 26 2017

TNZ002-004-019-021-049-052-054-088>092-261200-
WEST TENNESSEE

CITY           SKY/WX    TMP DP  RH WIND       PRES   REMARKS
MEMPHIS INTL   PTCLDY    78  76  93 CALM      30.10R
JACKSON        CLEAR     73  73 100 S5        30.10F FOG
SOMERVILLE       N/A     75  73  94 CALM      30.10R
COVINGTON      CLEAR     73  73 100 CALM      30.09S FOG
UNION CITY     CLEAR     73  73 100 CALM      30.07S FOG
BOLIVAR        CLEAR     72  72 100 CALM      30.11R
PARIS          PTCLDY    73  73 100 CALM      30.09S FOG
HUNTINGDON     CLEAR     75  75 100 CALM      30.08F
SELMER         CLEAR     73  73 100 W5        30.11S
SAVANNAH       CLEAR     73  72  94 CALM      30.10S FOG
$$

TNZ008-025-027-028-033-062-065-066-261200-
NORTH MIDDLE TENNESSEE

CITY           SKY/WX    TMP DP  RH WIND       PRES   REMARKS
NASHVILLE      PTCLDY    75  73  93 CALM      30.12R
PORTLAND         N/A     72  70  94 CALM      30.10F
CLARKSVILLE    PTCLDY    71  69  93 NE3       30.10F
SMYRNA         CLEAR     73  72  96 CALM      30.12R
COOKEVILLE       N/A     68  68 100 CALM      30.14R
GALLATIN       CLEAR     73  70  88 CALM      30.13S
CROSSVILLE     CLEAR     66  64  93 CALM      30.20R FOG
$$

TNZ061-075-076-078-094-096-097-261200-
SOUTH MIDDLE TENNESSEE

CITY           SKY/WX    TMP DP  RH WIND       PRES   REMARKS
FAYETTEVILLE   CLOUDY    73  73 100 CALM      30.14R
TULLAHOMA      PTCLDY    70  66  88 CALM      30.16R
WINCHESTER     CLEAR     70  70 100 CALM      30.15R
MCMINNVILLE    CLEAR     72  72 100 CALM      30.15R
COLUMBIA       PTCLDY    73  73 100 CALM      30.11R FOG
SHELBYVILLE    MOCLDY    72  72 100 CALM      30.13R
$$

TNZ017-018-042-046-047-261200-
NORTHEAST TENNESSEE

CITY           SKY/WX    TMP DP  RH WIND       PRES   REMARKS
TRI CITIES     PTCLDY    65  64  97 CALM      30.18R
ELIZABETHTON   MOCLDY    68  64  88 NE3       30.18S
$$

TNZ012-013-036-069-073-074-261200-
CENTRAL EAST TENNESSEE

CITY           SKY/WX    TMP DP  RH WIND       PRES   REMARKS
KNOXVILLE      PTCLDY    70  66  87 NW5       30.15R
OAK RIDGE      CLEAR     69  65  86 CALM      30.17R
DOWNTOWN KNOXV FOG       66  66 100 CALM      30.15R VSB 1
MORRISTOWN     CLEAR     66  66 100 CALM      30.17R FOG
JACKSBORO      CLEAR     64  64 100 CALM      30.20S FOG
$$

TNZ083-085-099-261200-
SOUTHEAST TENNESSEE

CITY           SKY/WX    TMP DP  RH WIND       PRES   REMARKS
CHATTANOOGA    PTCLDY    74  71  91 CALM      30.13R
DAYTON         MOSUNNY   70  70 100 CALM      30.13R FOG
$$

SKY/WX REPORTED AS FAIR MEANS FEW OR NO CLOUDS BELOW
12 THOUSAND FEET.





USA.gov is the U.S. government's official web portal to all federal, state and local government web resources and services.